Location: Équennes
(49.7375°N, 1.9622°E)
Time: 13:56:27
(UTC+00:00)

FENGYUN 1C DEB - Visible Passes

Search period start: 23 February 2024 00:00
Search period end: 04 March 2024 00:00
Orbit: 759 x 806 km, 99.0° (Epoch: 22 February)

Date Brightness Start Highest point End Pass type
(mag) Time Alt. Az. Time Alt. Az. Time Alt. Az.
29 Feb ? 22:22:00 10° N 22:22:00 10° N 22:22:05 10° N visible
01 Mar ? 21:49:40 11° N 21:49:40 11° N 21:49:50 10° N visible
02 Mar ? 22:57:51 10° NNW 22:57:51 10° NNW 22:57:51 10° NNW visible
03 Mar ? 22:25:27 12° N 22:25:27 12° N 22:25:49 10° N visible
